Location: Praha
(50.0830°N, 14.4670°E)
Time: 21:54:37
(UTC+02:00)

ISS - Pass Details

Date: 13 September 2019
Orbit: 411 x 421 km, 51.6° (Epoch: 19 September)

Event Time Altitude Azimuth Distance (km) Brightness Sun altitude
Exits shadow 03:57:43 26° 107° (ESE) 868 -1.9 -23.6°
Drops below altitude 10° 03:59:17 10° 107° (ESE) 1,489 -0.6 -23.4°
Sets 04:01:22 0° 107° (ESE) 2,353 0.5 -23.2°
